Regional Weather Roundup
Issued by NWS

Home | Current Version | Previous Version | Graphics & Text | Print | Product List | Glossary Off
Versions: 1 2 3 4 5 6 7 8 9 10 11 12 13 14 15 16 17 18 19 20 21 22 23 24 25 26 27 28 29 30 31 32 33 34 35 36 37 38 39 40 41 42 43 44 45 46 47 48 49 50

000
ASUS43 KOAX 300810
RWRNE

WEATHER ROUNDUP FOR NEBRASKA
NATIONAL WEATHER SERVICE OMAHA NE
300 AM CDT THU JUL 30 2015

NOTES: SATELLITE DATA IS BEING USED TO AUGMENT CLOUD COVER ABOVE
       12000 FEET.
       "FAIR" INDICATES FEW OR NO CLOUDS BELOW 12,000 FEET WITH NO
       SIGNIFICANT WEATHER AND/OR OBSTRUCTIONS TO VISIBILITY.

  * THESE STATIONS DO NOT REPORT WEATHER SUCH AS RAIN...SNOW OR FOG.

NEZ001>004-019>022-054>056-300900-
NEBRASKA PANHANDLE

CITY           SKY/WX    TMP DP  RH WIND       PRES   REMARKS
SCOTTSBLUFF    CLEAR     61  51  70 NE7       30.25S
ALLIANCE       PTCLDY    57  48  72 S6        30.25R
CHADRON        CLEAR     56  50  80 CALM      30.21R
KIMBALL        CLEAR     61  47  61 S10       30.28S
SIDNEY         CLEAR     62  48  60 S12       30.28S
$$

NEZ057>060-069>072-079>082-300900-
SOUTHWEST NEBRASKA

CITY           SKY/WX    TMP DP  RH WIND       PRES   REMARKS
NORTH PLATTE   CLEAR     57  53  86 CALM      30.25S
IMPERIAL       CLEAR     63  52  67 S8        30.26S
LEXINGTON      CLEAR     61  55  79 CALM      30.25R
MCCOOK         CLEAR     59  53  80 CALM      30.25S
OGALLALA       CLEAR     58  51  75 CALM      30.26S
$$

NEZ005>010-023>029-035>040-094-300900-
NORTH CENTRAL NEBRASKA

CITY           SKY/WX    TMP DP  RH WIND       PRES   REMARKS
VALENTINE      CLEAR     58  51  78 SW6       30.20F
AINSWORTH      CLEAR     64  55  72 NW3       30.21S
BROKEN BOW     CLEAR     57  53  86 W3        30.23S
O`NEILL        CLEAR     63  54  74 SW6       30.19S
ORD            CLEAR     58  53  84 CALM      30.20R
THEDFORD       CLEAR     65  53  65 S7        30.23S
$$

NEZ041-046>049-061>064-073>077-083>087-300900-
SOUTH CENTRAL NEBRASKA

CITY           SKY/WX    TMP DP  RH WIND       PRES   REMARKS
GRAND ISLAND   CLEAR     62  55  77 SW3       30.22S
AURORA         CLEAR     57  55  94 SW7       30.21S
HASTINGS       CLEAR     61  54  77 CALM      30.23S
HEBRON         CLEAR     58  56  92 CALM      30.21S
HOLDREGE       CLEAR     60  51  71 S3        30.24S
KEARNEY *      CLEAR     63  52  67 SW7       30.23S
YORK           CLEAR     57  55  94 W6        30.21S
$$

NEZ011>018-030>034-042>045-300900-
NORTHEAST NEBRASKA

CITY           SKY/WX    TMP DP  RH WIND       PRES   REMARKS
NORFOLK        CLEAR     63  56  78 CALM      30.17S
ALBION         CLEAR     64  53  66 CALM      30.19S
BLAIR          CLEAR     64  57  79 SW3       30.17S
COLUMBUS *     CLEAR     59  54  82 CALM      30.19S
FREMONT        CLEAR     66  58  73 CALM      30.17S
TEKAMAH        CLEAR     64  59  83 CALM      30.15S
WAYNE          CLEAR     60  58  92 S5        30.17S
$$

NEZ050>053-065>068-078-088>093-300900-
SOUTHEAST NEBRASKA

CITY           SKY/WX    TMP DP  RH WIND       PRES   REMARKS
LINCOLN        CLEAR     61  58  90 CALM      30.19S
OMAHA EPPLEY   CLEAR     67  60  78 SE3       30.16S
BEATRICE       FAIR      60  58  95 CALM      30.20R
FALLS CITY     CLEAR     64  64 100 NW3       30.18R FOG
NEBRASKA CITY  CLEAR     63  57  81 SW6       30.18S
PLATTSMOUTH    CLEAR     66  57  74 SW5       30.18S
$$

NEZ044-045-051>053-067-300900-
OMAHA AREA

CITY           SKY/WX    TMP DP  RH WIND       PRES   REMARKS
OMAHA EPPLEY   CLEAR     67  60  78 SE3       30.16S
BLAIR          CLEAR     64  57  79 SW3       30.17S
FREMONT        CLEAR     66  58  73 CALM      30.17S
MILLARD        CLEAR     63  60  93 CALM      30.17S
OFFUTT AFB     CLEAR     59  58  97 S1        30.16S
PLATTSMOUTH    CLEAR     66  57  74 SW5       30.18S
WAHOO          FAIR      62  59  89 SW6       30.17S
$$


USA.gov is the U.S. government's official web portal to all federal, state and local government web resources and services.